Flag for U.S.A. Weather past 2 weeks in Mesquite, Texas, U.S.A.

Now
64 °F

Clear.


Feels Like: 64 °F
Forecast: 67 / 84 °F
Wind: 5 mph from West

Location: Mesquite Metro Airport

Current Time: May 25, 2015 at 11:34:18 PM

Latest Report: May 25, 2015 at 10:35 PM


Visibility: 10 mi

Pressure: 29.89 "Hg

Humidity: 97%

Dew point: 63 °F

Location of MesquiteLocation

Historic Weather in Mesquite — Graph

°F

Mesquite temperature yesterday

Maximum temperature yesterday: 77 °F (at 5:50 PM)
Minimum temperature yesterday: 66 °F (at 5:35 AM)
Average temperature yesterday: 70 °F

Past Weeks' High & Low Weather Summary

 TemperatureHumidityPressure
High88 °F (May 18, 2:50 PM)100% (May 14, 6:50 AM)30.28 "Hg (May 14, 6:50 AM)
Low36 °F (May 17, 12:50 PM)43% (May 18, 5:50 PM)29.76 "Hg (May 16, 8:15 PM)
Average69 °F87%30.02 "Hg
* Reported May 10 9:15 PM — May 25 9:55 PM, Mesquite, Weather by CustomWeather, © 2015

Note: Actual official high and low records may vary slightly from our data, if they occured in-between our weather recording intervals... More about our weather records

Advertising

Mesquite weather history for previous 24 hours

 ConditionsComfort  
Time TempWeatherWind HumidityBarometerVisibility
9:55 PM
Mon, May 25
64 °FClear.7 mph98%29.85 "Hg10 mi
9:35 PM63 °FClear.6 mph98%29.84 "Hg10 mi
9:15 PM63 °FSunny.6 mph98%29.85 "Hg10 mi
8:55 PM63 °FSunny.3 mph98%29.83 "Hg10 mi
8:35 PM64 °FSunny.No wind96%29.84 "Hg10 mi
8:15 PM64 °FSunny.No wind96%29.82 "Hg10 mi
7:50 PM64 °FSunny.No wind94%29.83 "Hg10 mi
6:50 PM64 °FScattered clouds.6 mph94%29.78 "Hg10 mi
5:50 PM63 °FThunderstorms. Scattered clouds.23 mph100%29.77 "Hg10 mi
4:50 PM63 °FThunderstorms. Scattered clouds.5 mph100%29.93 "Hg4 mi
3:50 PM72 °FMild.22 mph78%29.93 "Hg1 mi
2:50 PM79 °FScattered clouds.20 mph74%29.80 "Hg10 mi
1:50 PM79 °FBroken clouds.20 mph79%29.83 "Hg10 mi
12:47 PM79 °FPartly sunny.18 mph79%29.91 "Hg10 mi
11:47 AM77 °FMostly cloudy.14 mph83%29.92 "Hg10 mi
10:50 AM75 °FMostly cloudy.15 mph89%29.93 "Hg10 mi
9:47 AM72 °FLow clouds.9 mph100%29.93 "Hg7 mi
8:47 AM70 °FFog.9 mph100%29.93 "Hg3 mi
7:47 AM70 °FFog.9 mph100%29.93 "Hg2 mi
6:50 AM70 °FFog.10 mph100%29.91 "Hg4 mi
6:15 AM70 °FLow clouds.12 mph97%29.91 "Hg10 mi
5:55 AM69 °FLow clouds.12 mph97%29.91 "Hg10 mi
5:35 AM69 °FLow clouds.9 mph97%29.90 "Hg10 mi
5:15 AM69 °FLow clouds.9 mph97%29.89 "Hg10 mi
4:55 AM69 °FPassing clouds.9 mph98%29.89 "Hg10 mi
4:35 AM69 °FPassing clouds.8 mph97%29.89 "Hg10 mi
4:15 AM69 °FLow clouds.8 mph97%29.89 "Hg10 mi
3:55 AM69 °FPassing clouds.9 mph97%29.89 "Hg10 mi
3:35 AM70 °FPassing clouds.8 mph97%29.89 "Hg10 mi
3:15 AM70 °FPassing clouds.10 mph97%29.89 "Hg10 mi
2:55 AM70 °FPartly cloudy.8 mph97%29.89 "Hg10 mi
2:35 AM70 °FPassing clouds.9 mph97%29.89 "Hg10 mi
2:15 AM70 °FClear.8 mph98%29.89 "Hg10 mi
1:55 AM70 °FPassing clouds.7 mph98%29.90 "Hg7 mi
1:35 AM70 °FPassing clouds.7 mph97%29.90 "Hg10 mi
1:15 AM70 °FClear.7 mph98%29.90 "Hg10 mi
12:55 AM71 °FClear.7 mph97%29.90 "Hg10 mi
12:35 AM71 °FClear.7 mph97%29.90 "Hg10 mi
12:15 AM71 °FPassing clouds.6 mph97%29.91 "Hg10 mi
11:55 PM
Sun, May 24
72 °FPassing clouds.8 mph96%29.91 "Hg10 mi
11:35 PM71 °FClear.7 mph97%29.91 "Hg10 mi
Weather by CustomWeather, © 2015

See weather overviewHow to use our weather pages